Location: Brno
(49.2000°N, 16.6330°E)
Time: 04:10:49
(UTC+02:00)

Cosmos 1603 - Visible Passes

Search period start: 28 August 2016 00:00
Search period end: 07 September 2016 00:00
Orbit: 830 x 861 km, 71.0° (Epoch: 26 August)

Date Brightness Start Highest point End Pass type
(mag) Time Alt. Az. Time Alt. Az. Time Alt. Az.
28 Aug 4.9 01:59:40 31° ESE 01:59:40 31° ESE 02:04:31 10° NE visible
28 Aug 4.1 03:41:34 37° WSW 03:43:26 51° NW 03:49:03 10° NNE visible
28 Aug 5.8 05:25:48 10° WNW 05:29:00 15° NNW 05:32:13 10° N visible
29 Aug 5.0 01:46:12 30° E 01:46:12 30° E 01:50:35 10° NE visible
29 Aug 4.1 03:28:06 42° W 03:29:31 52° NW 03:35:09 10° NNE visible
29 Aug 5.8 05:11:48 10° WNW 05:15:04 15° NNW 05:18:21 10° N visible
30 Aug 5.1 01:32:43 28° E 01:32:43 28° E 01:36:39 10° NE visible
30 Aug 4.0 03:14:37 48° W 03:15:37 54° NW 03:21:16 10° NNE visible
30 Aug 5.8 04:57:48 10° WNW 05:01:08 15° NNW 05:04:28 10° N visible
31 Aug 5.3 01:19:13 26° E 01:19:13 26° E 01:22:43 10° NE visible
31 Aug 3.9 03:01:07 53° W 03:01:42 55° NW 03:07:22 10° NNE visible
31 Aug 5.8 04:43:48 10° WNW 04:47:12 16° NNW 04:50:36 10° N visible
01 Sep 5.4 01:05:41 24° ENE 01:05:41 24° ENE 01:08:47 10° NE visible
01 Sep 3.9 02:47:35 56° WNW 02:47:47 57° NW 02:53:28 10° NNE visible
01 Sep 5.8 04:29:49 10° WNW 04:33:15 16° NNW 04:36:44 10° N visible
02 Sep 5.5 00:52:08 22° ENE 00:52:08 22° ENE 00:54:52 10° NE visible
02 Sep 4.0 02:34:02 58° NW 02:34:02 58° NW 02:39:34 10° NNE visible
02 Sep 5.8 04:15:55 10° WNW 04:19:19 16° NNW 04:22:51 10° N visible
03 Sep 5.6 00:38:34 20° ENE 00:38:34 20° ENE 00:40:55 10° NE visible
03 Sep 4.1 02:20:27 57° NW 02:20:27 57° NW 02:25:41 10° NNE visible
03 Sep 5.8 04:02:20 12° WNW 04:05:24 17° NNW 04:08:59 10° N visible
04 Sep 5.7 00:24:58 19° ENE 00:24:58 19° ENE 00:26:59 10° NE visible
04 Sep 4.2 02:06:52 55° NNW 02:06:52 55° NNW 02:11:47 10° NNE visible
04 Sep 5.7 03:48:45 13° WNW 03:51:27 17° NW 03:55:06 10° N visible
05 Sep 5.8 00:11:22 17° ENE 00:11:22 17° ENE 00:13:03 10° NE visible
05 Sep 4.3 01:53:15 52° N 01:53:15 52° N 01:57:54 10° NNE visible
05 Sep 5.7 03:35:08 14° WNW 03:37:31 17° NW 03:41:14 10° N visible
05 Sep 5.9 23:57:44 16° ENE 23:57:44 16° ENE 23:59:06 10° NE visible
06 Sep 4.5 01:39:37 49° N 01:39:37 49° N 01:43:59 10° NNE visible
06 Sep 5.7 03:21:30 15° WNW 03:23:35 17° NW 03:27:21 10° N visible
06 Sep 5.9 23:44:06 14° ENE 23:44:06 14° ENE 23:45:10 10° NE visible
